Regional Weather Roundup
Issued by NWS

Home | Current Version | Previous Version | Text Only | Print | Product List | Glossary Off
Versions: 1 2 3 4 5 6 7 8 9 10 11 12 13 14 15 16 17 18 19 20 21 22 23 24 25 26 27 28 29 30 31 32 33 34 35 36 37 38 39 40 41 42 43 44 45 46 47 48 49 50

116
ASUS45 KCYS 241910
RWRWY

WYOMING REGIONAL WEATHER ROUNDUP
NATIONAL WEATHER SERVICE CHEYENNE WY
100 PM MDT THU MAY 24 2018

NOTE:  "FAIR" INDICATES FEW OR NO CLOUDS BELOW 12,000 FEET
WITH NO SIGNIFICANT WEATHER AND/OR OBSTRUCTIONS TO VISIBILITY.

WYZ001-242000-
YELLOWSTONE NATIONAL PARK

CITY           SKY/WX    TMP DP  RH WIND       PRES   REMARKS
LK YELLOWSTONE NOT AVBL
W YELLOWSTONE  NOT AVBL

$$
WYZ002>013-054>058-071-098>099-242000-
NORTHERN WYOMING

CITY           SKY/WX    TMP DP  RH WIND       PRES   REMARKS
JACKSON        LGT RAIN  60  48  64 SW14      30.20S
CODY           FAIR      70  44  39 W16G26    30.06R
GREYBULL       FAIR      75  50  41 S7        29.99F
WORLAND        FAIR      75  47  36 CALM      30.00F
SHERIDAN       FAIR      79  50  36 CALM      29.95S
BUFFALO        FAIR      75  44  33 E6        30.00F
GILLETTE       FAIR      76  46  34 SW5       29.98S
NEWCASTLE      FAIR      72  46  40 SE5       30.02S

$$
WYZ014>020-022>026-101>103-242000-
CENTRAL WYOMING

CITY           SKY/WX    TMP DP  RH WIND       PRES   REMARKS
BIG PINEY      PTSUNNY   64  40  41 W7        30.22F
PINEDALE       MOCLDY    59  41  51 W7        30.24F
DUBOIS         CLOUDY    59  37  44 NW16G22   30.19S
LANDER         PTSUNNY   71  42  35 CALM      30.08S
RIVERTON       FAIR      71  45  39 SW10      30.10S
CASPER         FAIR      74  43  32 W14G25    30.07F
DOUGLAS        FAIR      75  47  36 W21       30.06S

$$
WYZ021-027>030-104>119-242000-
SOUTHERN WYOMING

CITY           SKY/WX    TMP DP  RH WIND       PRES   REMARKS
EVANSTON       FAIR      68  38  33 SW15G24   30.25S
FORT BRIDGER   MOCLDY    71  37  29 W15       30.27F
ROCK SPRINGS   FAIR      68  38  33 W13G24    30.22F
DIXON          FAIR      72  32  22 W12G21    30.24F
RAWLINS        FAIR      73  34  23 W24G30    30.20F
SARATOGA       FAIR      70  32  24 SW16G26   30.23S
LARAMIE        FAIR      70  32  24 W22G28    30.20S
CHEYENNE       LGT RAIN  73  39  29 SW10G22   30.14F
TORRINGTON     FAIR      79  45  29 W15G26    30.02F
PINE BLUFFS    FAIR      77  41  27 SW12      30.10S

$$




USA.gov is the U.S. government's official web portal to all federal, state and local government web resources and services.